Location: Unspecified
(39.0670°S, 0.0000°E)
Time: 04:34:37
(UTC+00:00)

Envisat - Pass Details

Date: 27 June 2019
Orbit: 764 x 766 km, 98.1° (Epoch: 13 October)

Event Time Altitude Azimuth Distance (km) Brightness Sun altitude
Exits shadow 18:23:12 21° 61° (ENE) 1,691 4.4 -18.2°
Drops below altitude 10° 18:25:45 10° 33° (NNE) 2,307 5.3 -18.6°
Sets 18:28:28 0° 19° (NNE) 3,223 6.2 -19.2°
